timestamp,wind_dir_avg,wind_spd_avg,wind_spd_max_dir,wind_spd_gust,battery_voltage,lat,long
2022-02-19 00:04:01+00:00,225.0,20.93,230.0,27.44,12.25,47.59359,-54.27349
2022-02-19 00:14:01+00:00,227.0,21.23,229.0,27.42,12.25,47.59359,-54.27349
2022-02-19 00:24:01+00:00,229.0,23.23,229.0,26.98,12.25,47.59359,-54.27349
2022-02-19 00:34:01+00:00,227.0,21.78,234.0,26.86,12.25,47.59359,-54.27349
2022-02-19 00:44:01+00:00,230.0,21.13,233.0,27.34,12.25,47.59359,-54.27349
2022-02-19 00:54:01+00:00,226.0,20.91,235.0,25.39,12.25,47.59359,-54.27349
2022-02-19 01:04:01+00:00,228.0,19.12,232.0,26.11,12.25,47.59359,-54.27349
2022-02-19 01:14:01+00:00,229.0,17.96,235.0,25.34,12.25,47.59359,-54.27349
2022-02-19 01:24:01+00:00,228.0,20.04,229.0,28.32,12.25,47.59359,-54.27349
2022-02-19 01:34:01+00:00,229.0,18.82,238.0,26.09,12.25,47.59359,-54.27349
2022-02-19 01:44:01+00:00,232.0,15.82,227.0,18.43,12.25,47.59359,-54.27349
2022-02-19 01:54:01+00:00,233.0,15.52,225.0,18.12,12.25,47.59359,-54.27349
2022-02-19 02:04:01+00:00,233.0,15.45,226.0,17.02,12.25,47.59359,-54.27349
2022-02-19 02:14:01+00:00,238.0,15.37,235.0,17.03,12.25,47.59359,-54.27349
2022-02-19 02:24:01+00:00,231.0,15.73,234.0,17.65,12.25,47.59359,-54.27349
2022-02-19 02:34:01+00:00,237.0,15.61,235.0,17.14,12.25,47.59359,-54.27349
2022-02-19 02:44:01+00:00,242.0,14.78,241.0,16.49,12.25,47.59359,-54.27349
2022-02-19 02:54:01+00:00,249.0,14.04,250.0,15.66,12.25,47.59359,-54.27349
2022-02-19 03:04:01+00:00,236.0,10.8,240.0,14.5,12.25,47.59359,-54.27349
2022-02-19 03:14:01+00:00,239.0,12.98,243.0,15.5,12.25,47.59359,-54.27349
2022-02-19 03:24:01+00:00,243.0,14.87,243.0,16.14,12.25,47.59359,-54.27349
2022-02-19 03:34:01+00:00,244.0,14.06,245.0,16.05,12.25,47.59359,-54.27349
2022-02-19 03:44:01+00:00,250.0,16.47,252.0,21.42,12.25,47.59359,-54.27349
2022-02-19 03:54:01+00:00,249.0,14.05,257.0,17.37,12.25,47.59359,-54.27349
2022-02-19 04:04:01+00:00,261.0,11.96,260.0,13.62,12.25,47.59359,-54.27349
2022-02-19 04:14:01+00:00,258.0,15.53,260.0,19.02,12.25,47.59359,-54.27349
2022-02-19 04:24:01+00:00,249.0,11.7,254.0,13.82,12.25,47.59359,-54.27349
2022-02-19 04:34:01+00:00,251.0,11.55,260.0,17.41,12.25,47.59359,-54.27349
2022-02-19 04:44:01+00:00,245.0,9.71,252.0,11.13,12.25,47.59359,-54.27349
2022-02-19 04:54:01+00:00,252.0,10.66,252.0,12.64,12.25,47.59359,-54.27349
2022-02-19 05:04:01+00:00,250.0,9.83,250.0,11.59,12.25,47.59359,-54.27349
2022-02-19 05:14:00+00:00,252.0,9.67,253.0,11.38,12.25,47.59359,-54.27349
2022-02-19 05:24:00+00:00,266.0,6.56,267.0,7.3,12.25,47.59359,-54.27349
2022-02-19 05:34:00+00:00,295.0,8.84,306.0,10.17,12.25,47.59359,-54.27349
2022-02-19 05:44:00+00:00,301.0,10.21,301.0,13.29,12.25,47.59359,-54.27349
2022-02-19 05:54:00+00:00,295.0,9.74,295.0,11.08,12.25,47.59359,-54.27349
2022-02-19 06:04:00+00:00,307.0,12.25,302.0,14.45,12.25,47.59359,-54.27349
2022-02-19 06:14:00+00:00,297.0,10.42,299.0,12.21,12.25,47.59359,-54.27349
2022-02-19 06:24:00+00:00,296.0,9.88,304.0,12.28,12.25,47.59359,-54.27349
2022-02-19 06:34:00+00:00,309.0,9.92,313.0,13.05,12.25,47.59359,-54.27349
2022-02-19 06:44:00+00:00,299.0,10.94,300.0,12.44,12.25,47.59359,-54.27349
2022-02-19 06:54:00+00:00,308.0,11.06,310.0,12.72,12.25,47.59359,-54.27349
2022-02-19 07:04:00+00:00,320.0,12.1,315.0,13.63,12.25,47.59359,-54.27349
2022-02-19 07:14:01+00:00,338.0,8.78,310.0,12.32,12.25,47.59359,-54.27349
2022-02-19 07:24:01+00:00,336.0,11.73,339.0,13.52,12.25,47.59359,-54.27349
2022-02-19 07:34:01+00:00,325.0,9.33,321.0,11.07,12.25,47.59359,-54.27349
2022-02-19 07:44:01+00:00,321.0,10.69,307.0,13.0,12.25,47.59359,-54.27349
2022-02-19 07:54:01+00:00,328.0,9.23,335.0,11.02,12.25,47.59359,-54.27349
2022-02-19 08:04:01+00:00,319.0,7.99,325.0,10.05,12.25,47.59359,-54.27349
2022-02-19 08:14:01+00:00,325.0,7.61,331.0,8.83,12.17,47.59359,-54.27349
2022-02-19 08:24:01+00:00,329.0,10.38,315.0,12.64,12.17,47.59359,-54.27349
2022-02-19 08:34:01+00:00,314.0,9.45,293.0,12.98,12.17,47.59359,-54.27349
2022-02-19 08:44:01+00:00,295.0,15.23,299.0,16.32,12.17,47.59359,-54.27349
2022-02-19 08:54:01+00:00,334.0,9.09,340.0,10.71,12.17,47.59359,-54.27349
2022-02-19 09:04:01+00:00,338.0,8.29,323.0,11.4,12.17,47.59359,-54.27349
2022-02-19 09:14:00+00:00,334.0,10.38,325.0,13.0,12.17,47.59359,-54.27349
2022-02-19 09:24:00+00:00,324.0,10.78,318.0,14.03,12.17,47.59359,-54.27349
2022-02-19 09:34:00+00:00,303.0,12.17,299.0,15.39,12.17,47.59359,-54.27349
2022-02-19 09:44:00+00:00,304.0,13.26,306.0,16.71,12.17,47.59359,-54.27349
2022-02-19 09:54:00+00:00,334.0,6.52,324.0,8.34,12.17,47.59359,-54.27349
2022-02-19 10:04:00+00:00,333.0,6.74,314.0,9.85,12.17,47.59359,-54.27349
2022-02-19 10:14:01+00:00,334.0,8.46,331.0,11.2,12.17,47.59359,-54.27349
2022-02-19 10:24:01+00:00,341.0,7.82,341.0,8.9,12.17,47.59359,-54.27349
2022-02-19 10:34:01+00:00,328.0,7.61,329.0,8.82,12.17,47.59359,-54.27349
2022-02-19 10:44:01+00:00,332.0,6.16,313.0,8.9,12.17,47.59359,-54.27349
2022-02-19 10:54:01+00:00,326.0,6.54,310.0,8.6,12.17,47.59359,-54.27349
2022-02-19 11:04:01+00:00,310.0,6.07,303.0,8.03,12.17,47.59359,-54.27349
2022-02-19 11:14:01+00:00,329.0,6.8,310.0,9.21,12.81,47.59359,-54.27349
2022-02-19 11:24:01+00:00,327.0,6.06,324.0,8.03,12.81,47.59359,-54.27349
2022-02-19 11:34:01+00:00,327.0,6.33,307.0,9.06,12.81,47.59359,-54.27349
2022-02-19 11:44:01+00:00,309.0,6.53,305.0,7.98,12.81,47.59359,-54.27349
2022-02-19 11:54:01+00:00,294.0,5.2,292.0,7.09,12.81,47.59359,-54.27349
2022-02-19 12:04:01+00:00,285.0,5.88,283.0,6.3,12.81,47.59359,-54.27349
2022-02-19 12:14:00+00:00,303.0,6.72,299.0,7.58,13.53,47.59359,-54.27349
2022-02-19 12:24:00+00:00,304.0,7.27,308.0,8.34,13.53,47.59359,-54.27349
2022-02-19 12:34:00+00:00,334.0,6.87,327.0,8.47,13.53,47.59359,-54.27349
2022-02-19 12:44:00+00:00,322.0,6.42,330.0,8.36,13.53,47.59359,-54.27349
2022-02-19 12:54:00+00:00,317.0,5.59,327.0,8.64,13.53,47.59359,-54.27349
2022-02-19 13:04:00+00:00,326.0,5.29,323.0,7.26,13.53,47.59359,-54.27349
2022-02-19 13:14:00+00:00,331.0,4.89,334.0,8.29,14.4,47.59359,-54.27349
2022-02-19 13:24:00+00:00,326.0,7.27,316.0,8.95,14.4,47.59359,-54.27349
2022-02-19 13:34:00+00:00,322.0,6.78,324.0,9.4,14.4,47.59359,-54.27349
2022-02-19 13:44:00+00:00,317.0,6.47,315.0,8.7,14.4,47.59359,-54.27349
2022-02-19 13:54:00+00:00,323.0,5.41,312.0,8.52,14.4,47.59359,-54.27349
2022-02-19 14:04:00+00:00,327.0,6.07,307.0,8.98,14.4,47.59359,-54.27349
2022-02-19 14:14:00+00:00,316.0,7.9,317.0,9.23,13.92,47.59359,-54.27349
2022-02-19 14:24:00+00:00,327.0,5.26,307.0,8.76,13.92,47.59359,-54.27349
2022-02-19 14:34:00+00:00,316.0,6.76,309.0,9.22,13.92,47.59359,-54.27349
2022-02-19 14:44:00+00:00,326.0,5.13,322.0,7.25,13.92,47.59359,-54.27349
2022-02-19 14:54:00+00:00,326.0,8.62,326.0,10.61,13.92,47.59359,-54.27349
2022-02-19 15:04:00+00:00,323.0,8.26,319.0,9.41,13.92,47.59359,-54.27349
2022-02-19 15:14:00+00:00,324.0,7.61,320.0,8.9,14.48,47.59359,-54.27349
2022-02-19 15:24:00+00:00,316.0,7.65,322.0,9.31,14.48,47.59359,-54.27349
2022-02-19 15:34:00+00:00,313.0,7.42,308.0,8.31,14.48,47.59359,-54.27349
2022-02-19 15:44:00+00:00,303.0,7.05,309.0,8.03,14.48,47.59359,-54.27349
2022-02-19 15:54:00+00:00,314.0,7.0,303.0,8.78,14.48,47.59359,-54.27349
2022-02-19 16:04:00+00:00,305.0,6.98,313.0,7.98,14.48,47.59359,-54.27349
2022-02-19 16:14:00+00:00,322.0,5.35,318.0,6.58,14.48,47.59359,-54.27349
2022-02-19 16:24:00+00:00,301.0,5.04,292.0,7.23,14.48,47.59359,-54.27349
2022-02-19 16:34:00+00:00,316.0,3.82,298.0,6.29,14.48,47.59359,-54.27349
2022-02-19 16:44:00+00:00,319.0,5.08,314.0,6.59,14.48,47.59359,-54.27349
2022-02-19 16:54:00+00:00,316.0,5.07,301.0,7.55,14.48,47.59359,-54.27349
2022-02-19 17:04:00+00:00,287.0,2.89,288.0,5.06,14.48,47.59359,-54.27349
2022-02-19 17:14:00+00:00,288.0,4.82,287.0,7.01,14.48,47.59359,-54.27349
2022-02-19 17:24:00+00:00,279.0,6.03,278.0,6.93,14.48,47.59359,-54.27349
2022-02-19 17:34:00+00:00,304.0,2.28,300.0,3.08,14.48,47.59359,-54.27349
2022-02-19 17:44:00+00:00,276.0,4.36,271.0,6.75,14.48,47.59359,-54.27349
2022-02-19 17:54:00+00:00,271.0,5.69,275.0,6.46,14.48,47.59359,-54.27349
2022-02-19 18:04:00+00:00,289.0,5.99,285.0,6.99,14.48,47.59359,-54.27349
2022-02-19 18:14:00+00:00,297.0,6.22,300.0,7.66,13.68,47.59359,-54.27349
2022-02-19 18:24:00+00:00,279.0,5.15,274.0,5.83,13.68,47.59359,-54.27349
2022-02-19 18:34:00+00:00,262.0,2.8,265.0,4.91,13.68,47.59359,-54.27349
2022-02-19 18:44:00+00:00,283.0,6.27,284.0,6.61,13.68,47.59359,-54.27349
2022-02-19 18:54:00+00:00,285.0,5.6,288.0,6.58,13.68,47.59359,-54.27349
2022-02-19 19:04:00+00:00,289.0,3.81,287.0,5.19,13.68,47.59359,-54.27349
2022-02-19 19:14:00+00:00,270.0,0.08,359.0,0.79,13.53,47.59359,-54.27349
2022-02-19 19:24:00+00:00,322.0,1.29,325.0,2.24,13.53,47.59359,-54.27349
2022-02-19 19:34:00+00:00,301.0,2.62,301.0,4.18,13.53,47.59359,-54.27349
2022-02-19 19:44:00+00:00,238.0,0.56,263.0,1.01,13.53,47.59359,-54.27349
2022-02-19 19:54:00+00:00,220.0,4.31,234.0,5.51,13.53,47.59359,-54.27349
2022-02-19 20:04:00+00:00,223.0,3.1,239.0,4.48,13.53,47.59359,-54.27349
2022-02-19 20:14:01+00:00,175.0,3.67,174.0,3.88,13.68,47.59359,-54.27349
2022-02-19 20:24:01+00:00,181.0,3.21,183.0,3.46,13.68,47.59359,-54.27349
2022-02-19 20:34:01+00:00,163.0,2.49,127.0,4.17,13.68,47.59359,-54.27349
2022-02-19 20:44:01+00:00,163.0,2.45,149.0,3.29,13.68,47.59359,-54.27349
2022-02-19 20:54:01+00:00,181.0,2.78,185.0,3.72,13.68,47.59359,-54.27349
2022-02-19 21:04:01+00:00,202.0,2.67,214.0,3.27,13.68,47.59359,-54.27349
2022-02-19 21:14:01+00:00,191.0,2.7,188.0,3.35,12.89,47.59359,-54.27349
2022-02-19 21:24:01+00:00,194.0,3.32,192.0,3.9,12.89,47.59359,-54.27349
2022-02-19 21:34:01+00:00,175.0,2.46,174.0,3.0,12.89,47.59359,-54.27349
2022-02-19 21:44:01+00:00,174.0,3.08,180.0,3.53,12.89,47.59359,-54.27349
2022-02-19 21:54:01+00:00,149.0,4.6,144.0,5.96,12.89,47.59359,-54.27349
2022-02-19 22:04:01+00:00,146.0,4.3,154.0,4.94,12.89,47.59359,-54.27349
2022-02-19 22:14:01+00:00,143.0,4.09,150.0,4.77,12.57,47.59359,-54.27349
2022-02-19 22:24:01+00:00,147.0,4.87,147.0,6.43,12.57,47.59359,-54.27349
2022-02-19 22:34:01+00:00,169.0,3.88,159.0,4.93,12.57,47.59359,-54.27349
2022-02-19 22:44:01+00:00,189.0,4.9,185.0,5.81,12.57,47.59359,-54.27349
2022-02-19 22:54:01+00:00,192.0,4.22,189.0,5.01,12.57,47.59359,-54.27349
2022-02-19 23:04:01+00:00,191.0,4.1,187.0,4.59,12.57,47.59359,-54.27349
2022-02-19 23:14:01+00:00,180.0,4.47,183.0,5.08,12.49,47.59359,-54.27349
2022-02-19 23:24:01+00:00,181.0,5.0,182.0,5.4,12.49,47.59359,-54.27349
2022-02-19 23:34:01+00:00,174.0,4.44,164.0,5.2,12.49,47.59359,-54.27349
2022-02-19 23:44:01+00:00,177.0,5.27,176.0,5.94,12.49,47.59359,-54.27349
2022-02-19 23:54:01+00:00,175.0,4.39,179.0,5.63,12.49,47.59359,-54.27349
